Regional Weather Roundup
Issued by NWS

Home | Current Version | Previous Version | Text Only | Print | Product List | Glossary Off
Versions: 1 2 3 4 5 6 7 8 9 10 11 12 13 14 15 16 17 18 19 20 21 22 23 24 25 26 27 28 29 30 31 32 33 34 35 36 37 38 39 40 41 42 43 44 45 46 47 48 49 50

294
ASUS43 KTOP 270759
RWRKS

WEATHER ROUNDUP FOR KANSAS
NATIONAL WEATHER SERVICE GOODLAND KS
300 AM CDT SUN MAY 27 2018

NOTE:  "FAIR" INDICATES FEW OR NO CLOUDS BELOW 12,000 FEET WITH NO
SIGNIFICANT WEATHER AND/OR OBSTRUCTIONS TO VISIBILITY.

KSZ001>006-013>018-027>032-041>047-270900-
NORTHWEST KANSAS

CITY           SKY/WX    TMP DP  RH WIND       PRES   REMARKS
GOODLAND       MOCLDY    66  52  60 S14       29.85S
HAYS           PTCLDY    68  62  81 S7        29.84S
HILL CITY      CLOUDY    68  59  73 S7        29.84R
RUSSELL        MOCLDY    70  64  81 S12       29.82S
$$

KSZ061>065-074>080-084>089-270900-
SOUTHWEST KANSAS

CITY           SKY/WX    TMP DP  RH WIND       PRES   REMARKS
DODGE CITY     PTCLDY    71  64  78 S15       29.87S
GARDEN CITY    PTCLDY    71  61  70 SE16      29.86S
GREAT BEND     PTCLDY    71  65  81 S12       29.84S
LIBERAL        PTCLDY    67  60  78 SE7       29.87S
$$

KSZ066>073-081>083-090>101-270900-
SOUTHEAST KANSAS

CITY           SKY/WX    TMP DP  RH WIND       PRES   REMARKS
CHANUTE        CLEAR     70  67  90 S5        29.84F
COFFEYVILLE    CLEAR     68  67  96 CALM      29.83F
HUTCHINSON     PTCLDY    69  65  86 S5        29.84R
MEDICINE LODGE   N/A     70  66  87 E3        29.84S
NEWTON         CLEAR     69  65  86 S9        29.85F
PARSONS        CLEAR     67  66  97 CALM      29.85F
WICHITA INTL   PTCLDY    70  66  87 S8        29.84S
WICHITA JABRA  CLEAR     70  66  87 S7        29.84S
WINFIELD       CLEAR     70  66  87 CALM      29.85F
$$

KSZ007>012-019>026-033>040-048>060-102>105-270900-
NORTHEAST KANSAS

CITY           SKY/WX    TMP DP  RH WIND       PRES   REMARKS
CONCORDIA      CLEAR     74  62  66 S13       29.81S
EMPORIA        CLEAR     69  65  86 S5        29.83F
LAWRENCE       CLEAR     71  68  90 SE5       29.82S
MANHATTAN      CLEAR     71  65  81 S5        29.82S
OLATHE IND     PTCLDY    72  68  87 S3        29.84S
OLATHE EXE     CLEAR     70  68  93 S6        29.84S
SALINA         PTCLDY    70  64  81 S5        29.82S
TOPEKA BILLARD PTCLDY    73  68  84 CALM      29.81S
TOPEKA FORBES  PTCLDY    73  68  84 S6        29.82S
$$




USA.gov is the U.S. government's official web portal to all federal, state and local government web resources and services.